Location: Newark
(43.0000°N, 1.6781°W)
Time: 10:01:51
(UTC+00:00)

TLV R/B - Visible Passes

Search period start: 24 July 2024 00:00
Search period end: 03 August 2024 00:00
Orbit: 421 x 629 km, 46.9° (Epoch: 23 July)

Date Brightness Start Highest point End Pass type
(mag) Time Alt. Az. Time Alt. Az. Time Alt. Az.
31 Jul ? 04:21:38 10° SSW 04:24:52 24° SE 04:27:56 10° E visible
01 Aug ? 04:07:21 10° SSW 04:10:49 29° SE 04:14:06 10° E visible
02 Aug ? 03:53:42 14° SSW 03:56:45 34° SSE 04:00:12 10° E visible
